DW1039 Weather Reports


Display with metric or nautical units.
time (UTC)temp
F
wind
direction
speed
MPH
gust
MPH
rain 1hr
in
rain 24hr
in
rain mn
in
humidity
%
barometer
mb
20170527133557 73 243 4.0 8.0 0.00 0.04 0.03 84 1011.6
20170527133057 72 250 0.0 9.0 0.00 0.04 0.03 84 1011.5
20170527132557 72 265 1.0 9.0 0.00 0.04 0.03 84 1011.5
20170527132057 72 217 0.0 9.0 0.00 0.04 0.03 84 1011.7
20170527131556 72 259 2.0 7.0 0.00 0.04 0.03 84 1011.7
20170527131056 72 261 4.0 7.0 0.00 0.04 0.03 84 1011.9
20170527130556 72 273 0.0 6.0 0.00 0.04 0.03 84 1011.8
20170527130057 72 252 0.0 6.0 0.00 0.04 0.03 84 1011.7
20170527125556 72 254 3.0 6.0 0.00 0.04 0.03 85 1011.7
20170527125056 72 292 0.0 6.0 0.00 0.04 0.03 85 1011.6
20170527124556 71 259 0.0 10.0 0.00 0.04 0.03 85 1011.5
20170527124055 71 254 4.0 10.0 0.00 0.04 0.03 85 1011.7
20170527123556 71 246 0.0 10.0 0.00 0.04 0.03 85 1011.6
20170527123055 70 216 5.0 6.0 0.00 0.04 0.03 85 1011.5
20170527122555 70 234 0.0 6.0 0.00 0.04 0.03 85 1011.5
20170527122055 70 223 0.0 5.0 0.00 0.04 0.03 85 1011.4
20170527121555 70 240 1.0 5.0 0.00 0.04 0.03 85 1011.4
20170527121055 70 236 0.0 4.0 0.00 0.04 0.03 85 1011.3
20170527120554 70 236 0.0 4.0 0.00 0.04 0.03 85 1011.3
20170527120055 70 235 0.0 8.0 0.00 0.04 0.03 85 1011.2
20170527115554 70 236 0.0 8.0 0.00 0.04 0.03 85 1011.3
20170527115054 70 236 3.0 8.0 0.00 0.04 0.03 85 1011.2
20170527114554 70 198 0.0 4.0 0.00 0.04 0.03 85 1011.2
20170527114054 69 199 0.0 1.0 0.00 0.04 0.03 85 1011.1
20170527113554 69 200 0.0 0.0 0.00 0.04 0.03 85 1011.0
20170527113054 69 200 0.0 0.0 0.00 0.04 0.03 85 1010.8
20170527112623 69 200 0.0 0.0 0.00 0.04 0.03 85 1010.8
20170527112123 69 200 0.0 2.0 0.00 0.04 0.03 85 1010.9
20170527111623 69 199 0.0 2.0 0.00 0.04 0.03 85 1011.0
20170527111123 69 200 0.0 2.0 0.00 0.04 0.03 85 1010.9
20170527110623 69 199 0.0 2.0 0.00 0.04 0.03 85 1010.9
20170527110123 69 199 0.0 2.0 0.00 0.04 0.03 85 1010.9
20170527105552 69 198 0.0 0.0 0.00 0.04 0.03 85 1010.9
20170527105052 69 199 0.0 0.0 0.00 0.04 0.03 85 1010.7
20170527104622 69 198 0.0 0.0 0.00 0.04 0.03 85 1010.6
20170527104052 69 199 0.0 0.0 0.00 0.04 0.03 85 1010.5
20170527103622 69 199 0.0 0.0 0.00 0.04 0.03 85 1010.5
20170527103052 69 199 0.0 0.0 0.00 0.04 0.03 85 1010.5
20170527102552 69 199 0.0 0.0 0.00 0.04 0.03 85 1010.5
20170527102121 69 198 0.0 1.0 0.00 0.04 0.03 85 1010.5
20170527101621 69 198 0.0 1.0 0.00 0.04 0.03 85 1010.5
20170527101121 69 198 0.0 1.0 0.00 0.04 0.03 85 1010.5
20170527100621 69 199 0.0 0.0 0.00 0.04 0.03 85 1010.4
20170527100121 69 198 0.0 0.0 0.00 0.04 0.03 85 1010.4
20170527095620 69 198 0.0 0.0 0.00 0.04 0.03 85 1010.5
20170527095121 69 199 0.0 2.0 0.00 0.04 0.03 85 1010.4
20170527094620 69 198 0.0 2.0 0.00 0.04 0.03 85 1010.4
20170527094121 69 198 0.0 2.0 0.00 0.04 0.03 85 1010.3
20170527093620 69 198 0.0 0.0 0.00 0.04 0.03 85 1010.2
20170527093120 69 198 0.0 3.0 0.00 0.04 0.03 85 1010.3
20170527092620 69 198 0.0 3.0 0.00 0.04 0.03 85 1010.2
20170527092120 69 199 0.0 4.0 0.00 0.04 0.03 85 1010.2
20170527091621 69 198 0.0 4.0 0.00 0.04 0.03 85 1010.3
20170527091120 69 198 0.0 4.0 0.00 0.04 0.03 85 1010.2
20170527090619 68 196 0.0 4.0 0.00 0.04 0.03 85 1010.1
20170527090119 69 191 0.0 3.0 0.00 0.04 0.03 85 1010.2
20170527085619 69 190 0.0 3.0 0.00 0.04 0.03 85 1010.1
20170527085119 69 183 0.0 0.0 0.00 0.04 0.03 85 1010.1
20170527084619 69 183 0.0 2.0 0.00 0.04 0.03 85 1010.0
20170527084118 69 183 0.0 3.0 0.00 0.04 0.03 85 1010.1
20170527083618 69 182 0.0 3.0 0.00 0.04 0.03 85 1010.0
20170527083119 69 182 0.0 5.0 0.00 0.04 0.03 85 1010.0
20170527082618 68 182 0.0 5.0 0.00 0.04 0.03 85 1009.9
20170527082118 68 182 1.0 5.0 0.00 0.04 0.03 85 1009.9
20170527081618 68 164 0.0 4.0 0.00 0.04 0.03 85 1009.9
20170527081118 68 163 0.0 4.0 0.01 0.04 0.03 86 1009.9
20170527080617 68 163 0.0 4.0 0.03 0.04 0.03 85 1010.0
20170527080117 68 163 0.0 4.0 0.03 0.04 0.03 85 1010.0
20170527075617 68 162 0.0 4.0 0.03 0.04 0.03 85 1010.0
20170527075117 68 161 0.0 3.0 0.03 0.04 0.03 85 1010.0
20170527074617 68 161 0.0 3.0 0.03 0.04 0.03 85 1009.9
20170527074117 68 161 0.0 4.0 0.03 0.04 0.03 85 1009.9
20170527073617 69 161 0.0 4.0 0.03 0.04 0.03 85 1009.9
20170527073117 69 161 0.0 4.0 0.03 0.04 0.03 85 1010.1
20170527072617 69 93 0.0 1.0 0.03 0.04 0.03 85 1010.1
20170527072117 69 94 0.0 1.0 0.03 0.04 0.03 85 1010.2
20170527071616 69 94 0.0 1.0 0.03 0.04 0.03 85 1010.2
20170527071116 69 93 0.0 1.0 0.02 0.03 0.02 85 1010.2
20170527070616 69 94 0.0 1.0 0.00 0.01 0.00 85 1010.2
20170527070116 69 94 0.0 1.0 0.00 0.01 0.00 85 1010.2
20170527065616 68 93 0.0 1.0 0.00 0.01 0.00 85 1010.2
20170527065115 68 93 0.0 1.0 0.00 0.01 0.00 85 1010.4
20170527064616 68 77 0.0 1.0 0.00 0.01 0.00 85 1010.3
20170527064115 68 77 0.0 0.0 0.00 0.01 0.00 85 1010.4
20170527063615 68 78 0.0 1.0 0.00 0.01 0.00 85 1010.4
20170527063115 68 77 0.0 1.0 0.00 0.01 0.00 85 1010.3
20170527062614 68 76 0.0 2.0 0.00 0.01 0.00 85 1010.3
20170527062115 68 77 0.0 2.0 0.00 0.01 0.00 85 1010.4
20170527061614 68 77 0.0 2.0 0.00 0.01 0.00 86 1010.4
20170527061114 68 77 0.0 1.0 0.00 0.01 0.00 86 1010.5
20170527060614 68 77 0.0 1.0 0.00 0.01 0.00 86 1010.5
20170527060114 68 76 0.0 1.0 0.00 0.01 0.00 86 1010.5
20170527055614 68 77 0.0 1.0 0.00 0.01 0.00 86 1010.4
20170527055113 68 77 0.0 1.0 0.00 0.01 0.00 86 1010.5
20170527054613 68 78 0.0 3.0 0.00 0.01 0.00 86 1010.5
20170527054114 68 78 0.0 3.0 0.00 0.01 0.00 86 1010.6
20170527053614 68 78 0.0 3.0 0.00 0.01 0.00 86 1010.6
20170527053113 68 60 0.0 1.0 0.00 0.01 0.00 86 1010.6
20170527052613 68 59 0.0 0.0 0.00 0.01 0.00 86 1010.6
20170527052113 68 61 0.0 0.0 0.00 0.01 0.00 86 1010.6
20170527051612 68 60 0.0 0.0 0.00 0.01 0.00 86 1010.6
20170527051112 68 61 0.0 0.0 0.00 0.01 0.00 86 1010.6
20170527050613 68 60 0.0 0.0 0.00 0.01 0.00 86 1010.5
20170527050112 68 61 0.0 0.0 0.00 0.01 0.00 86 1010.6
20170527045612 68 60 0.0 0.0 0.00 0.01 0.01 86 1010.7
20170527045112 68 60 0.0 0.0 0.00 0.01 0.01 86 1010.6
20170527044612 68 60 0.0 0.0 0.00 0.01 0.01 85 1010.6
20170527044111 68 61 0.0 0.0 0.00 0.01 0.01 85 1010.5
20170527043611 68 60 0.0 1.0 0.00 0.01 0.01 85 1010.6
20170527043111 68 61 0.0 1.0 0.00 0.01 0.01 85 1010.6
20170527042612 68 61 0.0 1.0 0.00 0.01 0.01 85 1010.7
20170527042111 68 60 0.0 4.0 0.00 0.01 0.01 85 1010.6
20170527041611 68 60 0.0 4.0 0.00 0.01 0.01 84 1010.7
20170527041111 68 61 0.0 4.0 0.00 0.01 0.01 85 1010.8
20170527040611 69 29 3.0 5.0 0.01 0.01 0.01 84 1010.9
20170527040110 69 28 1.0 5.0 0.01 0.01 0.01 84 1011.2
20170527035611 69 27 0.0 5.0 0.01 0.01 0.01 84 1011.1
20170527035110 69 59 0.0 4.0 0.01 0.01 0.01 84 1011.2
20170527034612 69 85 0.0 3.0 0.01 0.01 0.01 83 1011.3
20170527034110 70 139 0.0 0.0 0.01 0.01 0.01 82 1011.6
20170527033610 70 140 0.0 0.0 0.01 0.01 0.01 82 1011.7
20170527033109 71 139 0.0 0.0 0.01 0.01 0.01 81 1011.6
20170527032609 71 140 0.0 0.0 0.01 0.01 0.01 79 1011.7
20170527032109 72 140 0.0 5.0 0.01 0.01 0.01 78 1011.6
20170527031610 73 140 0.0 5.0 0.01 0.01 0.01 76 1011.5
20170527031109 73 151 2.0 5.0 0.01 0.01 0.01 74 1011.4
20170527030610 73 242 0.0 7.0 0.00 0.00 0.00 73 1012.3
20170527030109 73 229 0.0 11.0 0.00 0.00 0.00 72 1012.5
20170527025608 73 217 0.0 12.0 0.00 0.00 0.00 72 1011.7
20170527025108 73 159 2.0 14.0 0.00 0.00 0.00 72 1011.4
20170527024609 73 160 3.0 14.0 0.00 0.00 0.00 72 1011.3
20170527024108 73 138 1.0 11.0 0.00 0.00 0.00 72 1011.2
20170527023608 73 178 3.0 9.0 0.00 0.00 0.00 72 1011.0
20170527023112 73 171 2.0 9.0 0.00 0.00 0.00 72 1010.9
20170527022607 73 152 5.0 9.0 0.00 0.00 0.00 71 1010.9
20170527022108 73 187 5.0 11.0 0.00 0.00 0.00 71 1010.8
20170527021607 73 149 6.0 11.0 0.00 0.00 0.00 72 1010.8
20170527021107 73 187 8.0 11.0 0.00 0.00 0.00 71 1010.8
20170527020607 73 169 6.0 9.0 0.00 0.00 0.00 71 1010.6
20170527020107 73 142 6.0 10.0 0.00 0.00 0.00 71 1010.6
20170527015607 73 138 5.0 10.0 0.00 0.00 0.00 71 1010.8
20170527015108 73 149 0.0 10.0 0.00 0.00 0.00 70 1010.9
20170527014606 73 149 5.0 9.0 0.00 0.00 0.00 70 1010.9
20170527014107 73 171 4.0 9.0 0.00 0.00 0.00 69 1010.9
20170527013606 73 156 0.0 9.0 0.00 0.00 0.00 70 1010.8
20170527013106 73 151 4.0 9.0 0.00 0.00 0.00 70 1010.9
20170527012606 73 150 4.0 9.0 0.00 0.00 0.00 70 1010.8
20170527012106 73 172 3.0 9.0 0.00 0.00 0.00 70 1010.9
20170527011605 73 165 1.0 7.0 0.00 0.00 0.00 70 1010.8
20170527011105 73 161 2.0 4.0 0.00 0.00 0.00 70 1010.8
20170527010605 73 155 0.0 5.0 0.00 0.00 0.00 70 1010.9
20170527005605 74 144 2.0 5.0 0.00 0.00 0.00 68 1010.7
20170527005106 74 165 0.0 7.0 0.00 0.00 0.00 68 1010.8
20170527004605 74 148 2.0 8.0 0.00 0.00 0.00 67 1010.9
20170527004105 75 175 0.0 9.0 0.00 0.00 0.00 66 1011.1
20170527003604 75 188 0.0 9.0 0.00 0.00 0.00 66 1011.1
20170527003104 75 202 0.0 9.0 0.00 0.00 0.00 66 1011.2
20170527002604 75 169 1.0 7.0 0.00 0.00 0.00 66 1011.2
20170527002104 75 204 1.0 7.0 0.00 0.00 0.00 65 1011.2
20170527001604 76 146 0.0 3.0 0.00 0.00 0.00 65 1011.5
20170527000104 76 189 0.0 4.0 0.00 0.00 0.00 63 1011.6
20170526235103 76 190 0.0 8.0 0.00 0.00 0.00 62 1011.2
20170526234603 76 192 0.0 9.0 0.00 0.00 0.00 61 1010.9
20170526234104 77 181 0.0 9.0 0.00 0.00 0.00 60 1010.9
20170526233603 77 210 3.0 9.0 0.00 0.00 0.00 61 1011.1
20170526233103 77 160 0.0 9.0 0.00 0.00 0.00 61 1011.0
20170526232603 77 190 1.0 9.0 0.00 0.00 0.00 58 1011.0
20170526232102 77 175 3.0 8.0 0.00 0.00 0.00 59 1011.0
20170526231602 77 194 2.0 9.0 0.00 0.00 0.00 58 1010.9
20170526231102 77 150 3.0 11.0 0.00 0.00 0.00 61 1010.8
20170526230603 77 155 4.0 11.0 0.00 0.00 0.00 59 1010.8
20170526230102 77 153 3.0 10.0 0.00 0.00 0.00 58 1010.8
20170526225602 77 150 3.0 10.0 0.00 0.00 0.00 60 1010.9
20170526225101 77 163 3.0 9.0 0.00 0.00 0.00 58 1011.1
20170526224602 77 184 0.0 9.0 0.00 0.00 0.00 56 1011.2
20170526224101 78 187 6.0 13.0 0.00 0.00 0.00 55 1011.3
20170526223601 78 178 0.0 13.0 0.00 0.00 0.00 54 1011.3
20170526223101 78 206 6.0 13.0 0.00 0.00 0.00 55 1011.3
20170526222601 78 238 0.0 12.0 0.00 0.00 0.00 54 1011.2
20170526222101 78 205 6.0 12.0 0.00 0.00 0.00 55 1011.1
20170526221601 79 211 0.0 9.0 0.00 0.00 0.00 55 1011.1
20170526221101 79 197 0.0 11.0 0.00 0.00 0.00 54 1011.2
20170526220600 79 230 1.0 11.0 0.00 0.00 0.00 54 1011.3
20170526220100 79 202 0.0 13.0 0.00 0.00 0.00 55 1011.2
20170526215600 78 177 1.0 13.0 0.00 0.00 0.00 55 1011.2
20170526215059 79 180 2.0 13.0 0.00 0.00 0.00 54 1011.4
20170526214559 79 248 3.0 13.0 0.00 0.00 0.00 53 1011.5
20170526214059 79 271 3.0 11.0 0.00 0.00 0.00 52 1011.6
20170526213600 79 243 4.0 11.0 0.00 0.00 0.00 53 1011.6
20170526213100 79 207 5.0 13.0 0.00 0.00 0.00 53 1011.6
20170526212559 78 209 1.0 16.0 0.00 0.00 0.00 53 1011.4
20170526212059 78 173 10.0 16.0 0.00 0.00 0.00 54 1011.5
20170526211559 78 200 16.0 16.0 0.00 0.00 0.00 52 1011.4
20170526211059 78 198 11.0 12.0 0.00 0.00 0.00 53 1011.4
20170526210558 78 192 6.0 12.0 0.00 0.00 0.00 56 1011.2
20170526210058 79 132 2.0 12.0 0.00 0.00 0.00 56 1011.3
20170526205558 79 240 0.0 10.0 0.00 0.00 0.00 53 1011.2
20170526205058 79 253 0.0 10.0 0.00 0.00 0.00 52 1011.4
20170526204558 79 186 4.0 10.0 0.00 0.00 0.00 54 1011.3
20170526204058 79 202 0.0 9.0 0.00 0.00 0.00 51 1011.4
20170526203558 79 240 3.0 9.0 0.00 0.00 0.00 55 1011.4
20170526203058 78 209 7.0 7.0 0.00 0.00 0.00 52 1011.4
20170526202557 78 217 1.0 9.0 0.00 0.00 0.00 54 1011.4
20170526202057 78 193 6.0 9.0 0.00 0.00 0.00 57 1011.3
20170526201557 78 222 0.0 9.0 0.00 0.01 0.00 53 1011.3
20170526201057 78 158 4.0 10.0 0.00 0.01 0.00 58 1011.3
20170526200557 78 188 2.0 11.0 0.00 0.01 0.00 52 1011.4
20170526200057 78 171 7.0 11.0 0.00 0.01 0.00 52 1011.5
20170526195557 78 205 11.0 11.0 0.00 0.01 0.00 52 1011.7
20170526195056 78 271 5.0 11.0 0.00 0.01 0.00 54 1011.7
20170526194556 78 276 5.0 13.0 0.00 0.01 0.00 55 1011.7
20170526194056 77 196 0.0 13.0 0.00 0.01 0.00 55 1011.7
20170526193556 77 186 3.0 13.0 0.00 0.01 0.00 57 1011.6
20170526193055 77 176 3.0 9.0 0.00 0.01 0.00 54 1011.6
20170526192555 77 228 0.0 9.0 0.00 0.01 0.00 56 1011.6
20170526192055 76 198 5.0 9.0 0.00 0.01 0.00 59 1011.8
20170526191555 77 197 5.0 7.0 0.00 0.01 0.00 54 1011.9
20170526191055 77 205 4.0 7.0 0.00 0.01 0.00 59 1011.8
20170526190555 76 159 6.0 7.0 0.00 0.02 0.00 63 1011.8
20170526190055 76 233 4.0 7.0 0.00 0.06 0.00 58 1011.8
20170526185555 76 198 0.0 7.0 0.00 0.06 0.00 58 1011.7
20170526185054 76 198 0.0 9.0 0.00 0.06 0.00 58 1011.8
20170526184554 76 212 2.0 9.0 0.00 0.08 0.00 60 1012.2
20170526184054 76 232 3.0 10.0 0.00 0.16 0.00 56 1012.2
20170526183554 76 244 0.0 10.0 0.00 0.16 0.00 57 1012.3
20170526183054 76 207 0.0 10.0 0.00 0.16 0.00 58 1012.1
20170526182554 75 234 0.0 7.0 0.00 0.16 0.00 59 1012.1
20170526182054 75 258 0.0 9.0 0.00 0.16 0.00 58 1012.2
20170526181623 75 261 0.0 10.0 0.00 0.16 0.00 58 1012.1
20170526181124 75 172 1.0 10.0 0.00 0.16 0.00 59 1012.3
20170526180623 75 250 5.0 10.0 0.00 0.16 0.00 62 1012.4
20170526180123 74 192 5.0 10.0 0.00 0.16 0.00 60 1012.5
20170526175623 74 167 6.0 9.0 0.00 0.16 0.00 60 1012.6
20170526175123 74 243 0.0 13.0 0.00 0.16 0.00 62 1012.7
20170526174622 74 261 0.0 13.0 0.00 0.16 0.00 62 1012.7
20170526174122 74 194 0.0 13.0 0.00 0.16 0.00 61 1012.8
20170526173622 73 206 0.0 11.0 0.00 0.16 0.00 62 1012.7
20170526173122 73 257 0.0 11.0 0.00 0.16 0.00 64 1012.8
20170526172622 73 188 8.0 12.0 0.00 0.16 0.00 62 1013.0
20170526172122 73 225 0.0 12.0 0.00 0.16 0.00 64 1013.0
20170526171622 74 269 0.0 12.0 0.00 0.16 0.00 65 1012.9
20170526171121 74 277 4.0 9.0 0.00 0.16 0.00 64 1012.9
20170526170621 73 273 0.0 11.0 0.00 0.16 0.00 65 1013.0
20170526170121 72 289 0.0 11.0 0.00 0.16 0.00 68 1013.1
20170526165621 72 271 3.0 7.0 0.00 0.16 0.00 69 1013.2
20170526165121 71 235 4.0 7.0 0.00 0.16 0.00 71 1013.2
20170526164621 71 175 3.0 8.0 0.00 0.16 0.00 73 1013.4
20170526164121 70 159 4.0 8.0 0.00 0.16 0.00 74 1013.5
20170526163620 70 201 0.0 9.0 0.00 0.16 0.00 74 1013.6
20170526163120 70 192 0.0 9.0 0.00 0.16 0.00 73 1013.7
20170526162620 70 224 0.0 9.0 0.00 0.16 0.00 74 1013.9
20170526162120 70 213 0.0 7.0 0.00 0.16 0.00 75 1013.9
20170526161620 70 214 0.0 9.0 0.00 0.16 0.00 74 1014.0
20170526161120 70 252 3.0 9.0 0.00 0.16 0.00 74 1014.0
20170526160620 70 241 4.0 9.0 0.00 0.16 0.00 73 1014.0
20170526160120 70 250 0.0 7.0 0.00 0.16 0.00 76 1013.9
20170526155619 69 250 4.0 8.0 0.00 0.16 0.00 75 1013.9
20170526155119 69 209 3.0 8.0 0.00 0.16 0.00 75 1013.9
20170526154619 69 187 0.0 8.0 0.00 0.16 0.00 74 1013.9
20170526154119 69 242 0.0 7.0 0.00 0.16 0.00 75 1013.9
20170526153619 69 212 1.0 6.0 0.00 0.16 0.00 74 1013.9
20170526153118 69 264 0.0 7.0 0.00 0.16 0.00 74 1013.8
20170526152619 69 265 3.0 7.0 0.00 0.16 0.00 75 1013.8
20170526152118 69 242 1.0 7.0 0.00 0.16 0.00 76 1013.8
20170526151618 69 238 0.0 6.0 0.00 0.16 0.00 76 1013.9
20170526151118 68 244 0.0 6.0 0.00 0.16 0.00 76 1013.7
20170526150618 68 246 0.0 6.0 0.00 0.16 0.00 78 1013.7
20170526150118 67 244 4.0 7.0 0.00 0.16 0.00 78 1013.6
20170526145618 67 201 4.0 7.0 0.00 0.16 0.00 77 1013.6
20170526145117 67 181 3.0 7.0 0.00 0.16 0.00 78 1013.6
20170526144618 67 165 1.0 8.0 0.00 0.16 0.00 78 1013.5
20170526144118 66 220 3.0 8.0 0.00 0.16 0.00 78 1013.6
20170526143617 66 196 5.0 8.0 0.00 0.16 0.00 77 1013.4
20170526143117 66 202 0.0 8.0 0.00 0.16 0.00 78 1013.3
20170526142617 66 248 0.0 7.0 0.00 0.16 0.00 79 1013.7
20170526142117 66 224 0.0 7.0 0.00 0.16 0.00 79 1013.8
20170526141616 65 266 1.0 7.0 0.00 0.16 0.00 81 1014.0
20170526141116 65 257 0.0 9.0 0.00 0.16 0.00 80 1013.7
20170526140616 64 259 5.0 9.0 0.00 0.16 0.00 82 1013.8
20170526140116 64 223 0.0 8.0 0.00 0.16 0.00 83 1013.7
20170526135616 63 235 0.0 5.0 0.00 0.16 0.00 82 1013.9
20170526135116 63 238 0.0 5.0 0.00 0.16 0.00 84 1013.7
20170526134616 62 185 0.0 4.0 0.00 0.16 0.00 84 1013.5
20170526134116 62 191 0.0 5.0 0.00 0.16 0.00 84 1013.4